Weather History for KLAR - October, 2011

Change the Weather History Date:

Sunday, October 2, 2011

  Actual Average Record
Temperature  
Mean Temperature 57 °F 47 °F  
Max Temperature 73 °F 61 °F 77 °F (1992)
Min Temperature 41 °F 32 °F 20 °F (1977)
Degree Days  
Heating Degree Days 8 18  
Month to date heating degree days 15 36  
Since 1 July heating degree days 368 561  
Cooling Degree Days 0 0  
Month to date cooling degree days 0 0  
Year to date cooling degree days 126 67  
Growing Degree Days 6 (Base 50)    
Moisture  
Dew Point 34 °F    
Average Humidity 47    
Maximum Humidity 70    
Minimum Humidity 23    
Precipitation  
Precipitation 0.01 in 0.04 in 0.25 in (1966)
Month to date precipitation 0.01 0.07  
Year to date precipitation 8.65 9.33  
Sea Level Pressure  
Sea Level Pressure 30.10 in    
Wind  
Wind Speed 7 mph (SSW)    
Max Wind Speed 24 mph    
Max Gust Speed 29 mph    
Visibility 10 miles    
Events Rain    
T = Trace of Precipitation, MM = Missing Value Source: NWS Daily Summary

Daily Weather History Graph

Daily Weather History Graph

Search for Another Location

Airport or City:

Trip Planner

Search our weather history database for the weather conditions in past years. The results will help you decide how hot, cold, wet, or windy it might be!

Date:

Astronomy

Oct. 02, 2011 Rise Set
Actual Time 7:00 AM MDT 6:43 PM MDT
Civil Twilight 6:32 AM MDT 7:10 PM MDT
Nautical Twilight 6:00 AM MDT 7:42 PM MDT
Astronomical Twilight 5:28 AM MDT 8:14 PM MDT
Moon 1:12 PM MDT (10/2) 10:40 PM MDT (10/2)
Length of Visible Light 12h 38m
Length of Day
11h 42m
Waxing Crescent, 35% of the Moon is Illuminated
Oct 2
Waxing Crescent
Oct 3
First Quarter
Oct 11
Full
Oct 19
Last Quarter
Oct 26
New

Hourly Weather History & Observations

Time (MDT) Temp. Windchill Dew Point Humidity Pressure Visibility Wind Dir Wind Speed Gust Speed Precip Events Conditions
12:53 AM 51.1 °F - 36.0 °F 56% 29.99 in 10.0 mi SSW 10.4 mph - N/A   Clear
1:53 AM 50.0 °F - 36.0 °F 59% 29.98 in 10.0 mi SSW 10.4 mph - N/A   Clear
2:53 AM 45.0 °F 40.1 °F 34.0 °F 65% 30.00 in 10.0 mi SE 9.2 mph - N/A   Clear
3:53 AM 44.6 °F 41.4 °F 33.8 °F 66% 30.28 in 10.0 mi SE 5.8 mph - N/A   Clear
4:53 AM 42.1 °F 38.4 °F 32.0 °F 67% 30.03 in 10.0 mi SE 5.8 mph - N/A   Clear
5:53 AM 41.0 °F 35.2 °F 32.0 °F 70% 30.07 in 10.0 mi SSE 9.2 mph - N/A   Clear
6:53 AM 42.1 °F 37.7 °F 32.0 °F 67% 30.07 in 10.0 mi South 6.9 mph - N/A   Clear
7:53 AM 44.6 °F 43.1 °F 33.8 °F 66% 30.32 in 10.0 mi ESE 3.5 mph - N/A   Clear
8:53 AM 55.4 °F - 35.6 °F 47% 30.32 in 10.0 mi South 6.9 mph - N/A   Clear
9:53 AM 64.4 °F - 35.6 °F 34% 30.32 in 10.0 mi SW 6.9 mph - N/A   Clear
10:53 AM 69.1 °F - 34.0 °F 27% 30.02 in 10.0 mi Variable 3.5 mph - N/A   Clear
11:53 AM 71.6 °F - 33.8 °F 25% 30.29 in 10.0 mi WSW 6.9 mph - N/A   Clear
12:53 PM 66.9 °F - 33.1 °F 28% 30.01 in 10.0 mi North 9.2 mph - N/A   Mostly Cloudy
1:53 PM 64.9 °F - 37.9 °F 37% 29.99 in 10.0 mi Variable 4.6 mph - 0.00 in Rain Light Rain
2:53 PM 69.1 °F - 33.1 °F 26% 30.00 in 10.0 mi WNW 8.1 mph - 0.00 in   Partly Cloudy
3:53 PM 66.9 °F - 32.0 °F 27% 30.01 in 10.0 mi South 9.2 mph - 0.01 in   Overcast
4:53 PM 69.1 °F - 30.9 °F 24% 30.00 in 10.0 mi WNW 5.8 mph - N/A   Clear
5:53 PM 68.0 °F - 33.1 °F 27% 30.01 in 10.0 mi Calm Calm - N/A   Partly Cloudy
6:53 PM 62.6 °F - 35.6 °F 37% 30.26 in 10.0 mi SSW 10.4 mph - N/A   Mostly Cloudy
7:53 PM 61.0 °F - 34.0 °F 36% 30.06 in 10.0 mi West 8.1 mph - N/A   Overcast
8:53 PM 60.1 °F - 34.0 °F 38% 30.02 in 10.0 mi NNW 3.5 mph - N/A   Overcast
9:53 PM 53.1 °F - 36.0 °F 52% 30.03 in 10.0 mi South 6.9 mph - N/A   Mostly Cloudy
10:53 PM 50.0 °F - 35.6 °F 58% 30.30 in 10.0 mi SSW 9.2 mph - N/A   Clear
11:53 PM 46.0 °F 44.8 °F 34.0 °F 63% 30.03 in 10.0 mi South 3.5 mph - N/A   Clear